This is the latest recevied weather packets stored in our database for station/object G4KVI. If no packets are shown the sender has not sent any weather packets the latest 10 day(s).
| Time | Temp. | Humidity | Pressure | Rain* | Wind** | Luminosity | Snow |
|---|---|---|---|---|---|---|---|
| 1788019206 | 21.67° C | 72% | 1003.2 hPa | 0 mm | - | 323 W/m² | - |
| 1788018906 | 21.67° C | 72% | 1003.1 hPa | 0 mm | - | 241 W/m² | - |
| 1788018606 | 22.22° C | 73% | 1003.2 hPa | 0 mm | - | 349 W/m² | - |
| 1788018306 | 21.67° C | 74% | 1003.3 hPa | 0 mm | - | 390 W/m² | - |
| 1788018006 | 21.67° C | 74% | 1003.1 hPa | 0 mm | - | 485 W/m² | - |
| 1788017706 | 21.67° C | 75% | 1003 hPa | 0 mm | - | 403 W/m² | - |
| 1788017406 | 21.67° C | 74% | 1003.1 hPa | 0 mm | - | 150 W/m² | - |
| 1788017106 | 22.22° C | 74% | 1003 hPa | 0 mm | - | 402 W/m² | - |
| 1788016806 | 21.67° C | 77% | 1002.9 hPa | 0 mm | - | 515 W/m² | - |
| 1788016511 | 21.67° C | 80% | 1003 hPa | 0 mm | - | 490 W/m² | - |
| 1788016206 | 21.11° C | 81% | 1002.7 hPa | 0 mm | - | 267 W/m² | - |
| 1788015910 | 21.11° C | 80% | 1002.6 hPa | 0 mm | - | 341 W/m² | - |
| 1788015606 | 21.11° C | 80% | 1002.5 hPa | 0 mm | - | 228 W/m² | - |
| 1788015306 | 21.11° C | 79% | 1002.7 hPa | 0 mm | - | 309 W/m² | - |
| 1788015006 | 20.56° C | 81% | 1002.5 hPa | 0 mm | - | 556 W/m² | - |
| 1788014706 | 20.56° C | 82% | 1002.2 hPa | 0 mm | - | 191 W/m² | - |
| 1788014406 | 20.56° C | 80% | 1002.2 hPa | 0 mm | - | 138 W/m² | - |
| 1788014106 | 20.56° C | 78% | 1002.3 hPa | 0 mm | - | 165 W/m² | - |
| 1788013806 | 20.56° C | 79% | 1002.3 hPa | 0 mm | - | 319 W/m² | - |
| 1788013506 | 20.56° C | 81% | 1002.1 hPa | 0.25 mm | - | 565 W/m² | - |
| 1788013206 | 20.56° C | 87% | 1002 hPa | 0.25 mm | - | 532 W/m² | - |
| 1788012906 | 20° C | 88% | 1001.9 hPa | 0.25 mm | - | 525 W/m² | - |
| 1788012606 | 20° C | 90% | 1001.9 hPa | 0.25 mm | - | 177 W/m² | - |
| 1788012306 | 19.44° C | 90% | 1001.6 hPa | 0.25 mm | - | 348 W/m² | - |
| 1788012006 | 18.89° C | 89% | 1001.8 hPa | 0.51 mm | - | 274 W/m² | - |
* Rain latest hour (hover to see other rain measurements)
** Current wind speed in m/s (hover to see current wind gust speed)